Location: Bemmer
(51.5498°N, 5.6249°E)
Time: 13:59:34
(UTC+00:00)

Cosmos 1844 - Pass Details

Date: 03 March 2021
Orbit: 822 x 868 km, 70.9° (Epoch: 11 April)

Event Time Altitude Azimuth Distance (km) Brightness Sun altitude
Rises 18:32:25 0° 329° (NNW) 3,464 7.4 -11.8°
Reaches altitude 10° 18:34:54 10° 331° (NNW) 2,520 6.6 -12.2°
Maximum altitude 18:40:43 76° 58° (ENE) 891 3.7 -13.1°
Drops below altitude 10° 18:46:26 10° 144° (SE) 2,481 5.7 -14.0°
Enters shadow 18:47:08 - 145° (SE) 2,740 6.0 -14.1°
